#timestamp,LO_Frequency,Hit,StdDev 
1632391215.3,286047000.9,N
1632391235.1,286047000.8,N
1632391255.9,286047000.0,N
1632391275.7,286046998.8,N
1632391295.5,286046998.8,N
1632391315.4,286046999.3,N
1632391335.2,286046999.0,N
1632391355.0,286046998.5,N
1632391355.9,286046998.5,N
1632391375.8,286047000.6,N
1632391395.6,286047001.0,N
1632391415.5,286046998.3,N
1632391435.3,286047001.2,N
1632391455.1,286046999.0,N
1632391475.9,286046998.9,N
1632391495.7,286046998.3,N
1632391515.5,286047001.2,N
1632391535.4,286047001.0,N
1632391555.2,286047002.8,N
1632391575.1,286047002.2,N
1632391576.0,286047002.2,N
1632391595.8,286047002.7,N
1632391615.6,286047000.1,N
1632391635.5,286047002.2,N
1632391655.3,286047000.4,N
1632391675.1,286047001.0,N
1632391695.9,286047000.5,N
1632391715.7,286047000.9,N
1632391735.6,286047001.0,N
1632391755.4,286046999.9,N
1632391775.2,286047000.4,N
1632391795.1,286046999.9,N
1632391796.0,286046999.9,N
1632391815.8,286047000.4,N
1632391835.6,286047001.9,N
1632391855.5,286047002.8,N
1632391875.3,286047000.5,N
1632391895.2,286047000.4,N
1632391915.9,286047000.6,N
1632391935.7,286047000.6,N
1632391955.6,286047000.4,N
1632391975.4,286046998.8,N
1632391995.2,286046997.2,N
1632392015.1,286046997.9,N
1632392035.8,286046994.9,Y
1632392055.7,286046995.2,P
1632392075.5,286046997.1,N
1632392095.4,286046997.7,N
1632392115.2,286046997.1,N
1632392135.0,286046997.7,N
1632392135.9,286046997.7,N
1632392155.8,286046997.1,N
1632392175.6,286046997.4,N
1632392195.5,286046996.6,N
1632392215.3,286046999.3,N
1632392235.1,286046999.3,N
1632392255.9,286046999.9,N
1632392275.7,286046999.9,N
1632392295.5,286047002.7,N
1632392315.4,286046999.8,N
1632392335.2,286047000.2,N
1632392355.1,286047000.0,N
1632392356.0,286047000.0,N
1632392375.8,286047002.4,N
1632392395.6,286047003.9,N
1632392415.5,286047002.0,N
1632392435.3,286047000.1,N
1632392455.2,286047004.0,N
1632392475.9,286047001.4,N
1632392495.7,286047003.3,N
1632392515.6,286047005.9,N
1632392535.4,286047003.5,N
1632392555.2,286047004.2,N
1632392575.1,286047005.8,N
1632392576.0,286047005.8,N
1632392595.8,286047005.8,N
1632392615.7,286047006.0,N
1632392635.5,286047003.4,N
1632392655.3,286047003.1,N
1632392675.2,286047003.6,N
1632392695.0,286047004.3,N
1632392695.9,286047004.3,N
1632392715.8,286047002.0,N
1632392735.6,286047001.9,N
1632392755.4,286047002.4,N
1632392775.3,286047002.6,N
1632392795.1,286047001.6,N
1632392815.8,286047004.3,N
1632392835.7,286047003.7,N
1632392855.5,286047003.7,N
1632392875.4,286047003.3,N
1632392895.2,286047005.7,Y
1632392915.0,286046998.6,P
1632392915.9,286046998.6,N
1632392935.8,286047001.1,N
1632392955.6,286046998.5,N
1632392975.5,286047001.2,N
1632392995.3,286047001.1,N
1632393015.1,286047000.9,N
1632393035.9,286047001.2,N
1632393055.7,286047000.8,N
1632393075.5,286046998.8,N
1632393095.4,286046998.3,N
1632393115.2,286046999.9,N
1632393135.1,286047000.0,N
1632393136.0,286047000.0,N
1632393155.8,286046998.1,N
1632393175.6,286047001.0,N
1632393195.5,286047000.7,N
1632393215.3,286047000.5,N
1632393235.1,286047001.2,N
1632393255.9,286046998.2,N
1632393275.7,286046998.8,N
1632393295.6,286047001.2,N
1632393315.4,286047001.2,N
1632393335.2,286046998.5,N
1632393355.1,286046998.1,N
1632393356.0,286046998.1,N
1632393375.8,286046999.6,N
1632393395.7,286046999.1,N
1632393415.5,286046998.7,N
1632393435.3,286046998.2,N
1632393455.2,286046998.3,N
1632393475.0,286046998.9,N
1632393475.9,286046998.9,N
1632393495.8,286046998.9,N
1632393515.6,286046999.3,N
1632393535.4,286046999.0,N
1632393555.3,286046999.4,N
1632393575.1,286046999.6,N
1632393595.9,286046998.4,N
1632393615.7,286046998.9,N
1632393635.5,286046998.5,N
1632393655.4,286046998.5,N
1632393675.2,286046998.5,N
1632393695.0,286046999.6,N
1632393695.9,286046999.6,N
1632393715.8,286046999.4,N
1632393735.6,286046998.5,N
1632393755.5,286046999.4,N
1632393775.3,286046999.0,N
1632393795.1,286046998.9,N
1632393815.9,286047000.8,N
1632393835.7,286047001.2,N
1632393855.6,286047001.1,N
1632393875.4,286046998.5,N
1632393895.2,286047000.8,N
1632393915.1,286046998.8,N
1632393916.0,286046998.8,N
1632393935.8,286047001.2,N
1632393955.6,286047000.8,N
1632393975.5,286047001.2,N
1632393995.3,286046998.6,N
1632394015.2,286047001.1,N
1632394035.9,286046998.2,N
1632394055.7,286047001.2,N
1632394075.6,286046998.4,N
1632394095.4,286046996.7,Y
1632394115.2,286046999.5,P
1632394135.1,286046999.1,P
1632394136.0,286046999.1,P
1632394155.8,286046997.4,Y
1632394175.7,286046996.7,P
1632394195.5,286046996.7,N
1632394215.3,286046998.9,N
1632394235.2,286046998.8,N
1632394255.0,286046999.5,N
1632394255.9,286046999.5,N
1632394275.8,286046996.7,N
1632394295.6,286046999.5,N
1632394315.4,286046999.5,N
1632394335.3,286046998.4,N
1632394355.1,286047001.1,N
1632394375.8,286047001.1,N
1632394395.7,286047001.1,N
1632394415.5,286046999.0,N
1632394435.4,286046999.0,N
1632394455.2,286046998.5,N
1632394475.0,286047001.2,N
1632394475.9,286047001.2,N
1632394495.8,286047000.7,N
1632394515.6,286046998.7,N
1632394535.5,286046999.0,N
1632394555.3,286046999.3,N
1632394575.1,286046998.9,N
1632394595.9,286046996.5,N
1632394615.7,286046999.6,N
1632394635.5,286046998.4,N
1632394655.4,286046998.7,N
1632394675.2,286046996.5,N
1632394695.1,286046998.4,N
1632394696.0,286046998.4,N
1632394715.8,286047000.8,N
1632394735.6,286047000.7,N
1632394755.5,286047000.0,N
1632394775.3,286047000.9,N
1632394795.1,286047000.6,N
